Time,TemperatureF,DewpointF,PressureIn,WindDirection,WindDirectionDegrees,WindSpeedMPH,WindSpeedGustMPH,Humidity,HourlyPrecipIn,Conditions,Clouds,dailyrainin,SoftwareType,DateUTC
2013-02-17 00:01:00,34.0,26.0,29.65,SW,223,0.0,-999.0,73,-99.99,,,-99.99,,2013-02-17 07:01:00,
2013-02-17 00:11:00,34.0,26.0,29.65,SW,223,0.0,-999.0,73,-99.99,,,-99.99,,2013-02-17 07:11:00,
2013-02-17 00:21:00,34.0,28.0,29.64,SW,226,2.0,-999.0,78,-99.99,,,-99.99,,2013-02-17 07:21:00,
2013-02-17 00:31:00,34.0,28.0,29.64,SW,226,2.0,-999.0,77,-99.99,,,-99.99,,2013-02-17 07:31:00,
2013-02-17 00:41:00,34.0,28.0,29.64,SW,226,2.0,-999.0,77,-99.99,,,-99.99,,2013-02-17 07:41:00,
2013-02-17 00:52:00,35.0,28.0,29.63,SW,216,2.0,-999.0,76,-99.99,,,-99.99,,2013-02-17 07:52:00,
2013-02-17 01:01:00,35.0,27.0,29.63,SW,216,0.0,-999.0,73,-99.99,,,-99.99,,2013-02-17 08:01:00,
2013-02-17 01:11:00,35.0,27.0,29.63,SW,216,0.0,-999.0,73,-99.99,,,-99.99,,2013-02-17 08:11:00,
2013-02-17 01:21:00,34.0,27.0,29.63,SW,217,1.0,-999.0,76,-99.99,,,-99.99,,2013-02-17 08:21:00,
2013-02-17 01:31:00,33.0,27.0,29.62,SW,217,0.0,-999.0,77,-99.99,,,-99.99,,2013-02-17 08:31:00,
2013-02-17 01:42:00,33.0,27.0,29.62,SW,217,0.0,-999.0,77,-99.99,,,-99.99,,2013-02-17 08:42:00,
2013-02-17 01:52:00,34.0,28.0,29.62,SW,217,0.0,-999.0,77,-99.99,,,-99.99,,2013-02-17 08:52:00,
2013-02-17 02:01:00,33.0,26.0,29.62,SW,217,0.0,-999.0,75,-99.99,,,-99.99,,2013-02-17 09:01:00,
2013-02-17 02:11:00,33.0,26.0,29.62,SW,217,0.0,-999.0,75,-99.99,,,-99.99,,2013-02-17 09:11:00,
2013-02-17 02:21:00,32.0,25.0,29.62,SW,217,0.0,-999.0,76,-99.99,,,-99.99,,2013-02-17 09:21:00,
2013-02-17 02:31:00,32.0,26.0,29.61,SW,222,2.0,-999.0,79,-99.99,,,-99.99,,2013-02-17 09:31:00,
2013-02-17 02:41:00,32.0,26.0,29.61,SW,222,2.0,-999.0,79,-99.99,,,-99.99,,2013-02-17 09:41:00,
2013-02-17 02:52:00,32.0,27.0,29.61,WSW,246,4.0,-999.0,80,-99.99,,,-99.99,,2013-02-17 09:52:00,
2013-02-17 03:01:00,33.0,27.0,29.60,WSW,250,6.0,-999.0,79,-99.99,,,-99.99,,2013-02-17 10:01:00,
2013-02-17 03:11:00,33.0,27.0,29.60,WSW,250,6.0,-999.0,79,-99.99,,,-99.99,,2013-02-17 10:11:00,
2013-02-17 03:21:00,33.0,27.0,29.59,WSW,248,5.0,-999.0,77,-99.99,,,-99.99,,2013-02-17 10:21:00,
2013-02-17 03:31:00,33.0,26.0,29.59,WSW,248,4.0,-999.0,76,-99.99,,,-99.99,,2013-02-17 10:31:00,
2013-02-17 03:41:00,33.0,26.0,29.59,WSW,248,4.0,-999.0,76,-99.99,,,-99.99,,2013-02-17 10:41:00,
2013-02-17 03:52:00,32.0,25.0,29.58,WSW,248,0.0,-999.0,75,-99.99,,,-99.99,,2013-02-17 10:52:00,
2013-02-17 04:01:00,31.0,24.0,29.58,WSW,248,0.0,-999.0,76,-99.99,,,-99.99,,2013-02-17 11:01:00,
2013-02-17 04:11:00,31.0,24.0,29.58,WSW,248,0.0,-999.0,76,-99.99,,,-99.99,,2013-02-17 11:11:00,
2013-02-17 04:21:00,31.0,24.0,29.58,WSW,248,0.0,-999.0,76,-99.99,,,-99.99,,2013-02-17 11:21:00,
2013-02-17 04:32:00,30.0,24.0,29.57,WSW,248,0.0,-999.0,79,-99.99,,,-99.99,,2013-02-17 11:32:00,
2013-02-17 04:42:00,30.0,24.0,29.57,WSW,248,0.0,-999.0,79,-99.99,,,-99.99,,2013-02-17 11:42:00,
2013-02-17 04:52:00,30.0,25.0,29.57,WSW,248,0.0,-999.0,80,-99.99,,,-99.99,,2013-02-17 11:52:00,
2013-02-17 05:03:00,31.0,26.0,29.56,WSW,248,0.0,-999.0,80,-99.99,,,-99.99,,2013-02-17 12:03:00,
2013-02-17 05:11:00,31.0,26.0,29.56,WSW,248,0.0,-999.0,80,-99.99,,,-99.99,,2013-02-17 12:11:00,
2013-02-17 05:22:00,31.0,26.0,29.55,WSW,248,0.0,-999.0,81,-99.99,,,-99.99,,2013-02-17 12:22:00,
2013-02-17 05:32:00,31.0,26.0,29.54,WSW,248,0.0,-999.0,81,-99.99,,,-99.99,,2013-02-17 12:32:00,
2013-02-17 05:42:00,31.0,26.0,29.54,WSW,248,0.0,-999.0,81,-99.99,,,-99.99,,2013-02-17 12:42:00,
2013-02-17 05:52:00,32.0,27.0,29.54,West,270,2.0,-999.0,80,-99.99,,,-99.99,,2013-02-17 12:52:00,
2013-02-17 06:02:00,32.0,26.0,29.55,West,270,0.0,-999.0,79,-99.99,,,-99.99,,2013-02-17 13:02:00,
2013-02-17 06:12:00,32.0,26.0,29.55,West,270,0.0,-999.0,79,-99.99,,,-99.99,,2013-02-17 13:12:00,
2013-02-17 06:21:00,33.0,27.0,29.55,West,271,7.0,-999.0,79,-99.99,,,-99.99,,2013-02-17 13:21:00,
2013-02-17 06:32:00,36.0,29.0,29.55,West,263,7.0,-999.0,74,-99.99,,,-99.99,,2013-02-17 13:32:00,
2013-02-17 06:41:00,36.0,29.0,29.55,West,263,7.0,-999.0,74,-99.99,,,-99.99,,2013-02-17 13:41:00,
2013-02-17 06:52:00,36.0,28.0,29.54,West,262,8.0,-999.0,71,-99.99,,,-99.99,,2013-02-17 13:52:00,
2013-02-17 07:01:00,35.0,28.0,29.53,WSW,258,8.0,-999.0,74,-99.99,,,-99.99,,2013-02-17 14:01:00,
2013-02-17 07:11:00,35.0,28.0,29.53,WSW,258,8.0,-999.0,74,-99.99,,,-99.99,,2013-02-17 14:11:00,
2013-02-17 07:21:00,34.0,27.0,29.53,WSW,246,7.0,-999.0,76,-99.99,,,-99.99,,2013-02-17 14:21:00,
2013-02-17 07:32:00,36.0,29.0,29.53,West,264,9.0,-999.0,74,-99.99,,,-99.99,,2013-02-17 14:32:00,
2013-02-17 07:42:00,36.0,29.0,29.53,West,264,9.0,-999.0,74,-99.99,,,-99.99,,2013-02-17 14:42:00,
2013-02-17 07:53:00,35.0,28.0,29.53,West,279,6.0,-999.0,74,-99.99,,,-99.99,,2013-02-17 14:53:00,
2013-02-17 08:02:00,34.0,28.0,29.53,West,279,7.0,-999.0,77,-99.99,,,-99.99,,2013-02-17 15:02:00,
2013-02-17 08:11:00,34.0,28.0,29.53,West,279,7.0,-999.0,77,-99.99,,,-99.99,,2013-02-17 15:11:00,
2013-02-17 08:21:00,34.0,28.0,29.53,West,277,10.0,-999.0,79,-99.99,,,-99.99,,2013-02-17 15:21:00,
2013-02-17 08:32:00,35.0,29.0,29.52,West,281,10.0,-999.0,78,-99.99,,,-99.99,,2013-02-17 15:32:00,
2013-02-17 08:41:00,35.0,29.0,29.52,West,281,10.0,-999.0,78,-99.99,,,-99.99,,2013-02-17 15:41:00,
2013-02-17 08:52:00,35.0,29.0,29.52,West,274,10.0,-999.0,78,-99.99,,,-99.99,,2013-02-17 15:52:00,
2013-02-17 09:01:00,36.0,30.0,29.52,West,271,9.0,-999.0,78,-99.99,,,-99.99,,2013-02-17 16:01:00,
2013-02-17 09:11:00,36.0,30.0,29.52,West,271,9.0,-999.0,78,-99.99,,,-99.99,,2013-02-17 16:11:00,
2013-02-17 09:21:00,36.0,30.0,29.52,West,271,9.0,-999.0,78,-99.99,,,-99.99,,2013-02-17 16:21:00,
2013-02-17 09:32:00,36.0,29.0,29.52,West,266,9.0,-999.0,77,-99.99,,,-99.99,,2013-02-17 16:32:00,
2013-02-17 09:42:00,36.0,29.0,29.52,West,266,9.0,-999.0,77,-99.99,,,-99.99,,2013-02-17 16:42:00,
2013-02-17 09:51:00,37.0,30.0,29.52,West,263,8.0,-999.0,75,-99.99,,,-99.99,,2013-02-17 16:51:00,
2013-02-17 10:02:00,37.0,29.0,29.52,West,271,11.0,-999.0,73,-99.99,,,-99.99,,2013-02-17 17:02:00,
2013-02-17 10:11:00,37.0,29.0,29.52,West,271,11.0,-999.0,73,-99.99,,,-99.99,,2013-02-17 17:11:00,
2013-02-17 10:21:00,38.0,29.0,29.53,West,272,13.0,-999.0,71,-99.99,,,-99.99,,2013-02-17 17:21:00,
2013-02-17 10:32:00,37.0,28.0,29.52,WNW,292,15.0,-999.0,71,-99.99,,,-99.99,,2013-02-17 17:32:00,
2013-02-17 10:42:00,37.0,28.0,29.52,WNW,292,15.0,-999.0,71,-99.99,,,-99.99,,2013-02-17 17:42:00,
2013-02-17 10:52:00,37.0,29.0,29.52,West,270,14.0,-999.0,73,-99.99,,,-99.99,,2013-02-17 17:52:00,
2013-02-17 11:02:00,38.0,30.0,29.53,West,268,11.0,-999.0,73,-99.99,,,-99.99,,2013-02-17 18:02:00,
2013-02-17 11:11:00,38.0,30.0,29.53,West,268,11.0,-999.0,73,-99.99,,,-99.99,,2013-02-17 18:11:00,
2013-02-17 11:22:00,38.0,31.0,29.52,WSW,249,10.0,-999.0,75,-99.99,,,-99.99,,2013-02-17 18:22:00,
2013-02-17 11:33:00,38.0,30.0,29.52,WSW,258,13.0,-999.0,73,-99.99,,,-99.99,,2013-02-17 18:33:00,
2013-02-17 11:42:00,38.0,30.0,29.52,WSW,258,13.0,-999.0,73,-99.99,,,-99.99,,2013-02-17 18:42:00,
2013-02-17 11:52:00,37.0,29.0,29.53,West,279,16.0,-999.0,74,-99.99,,,-99.99,,2013-02-17 18:52:00,
2013-02-17 12:01:00,36.0,29.0,29.53,West,277,16.0,-999.0,77,-99.99,,,-99.99,,2013-02-17 19:01:00,
2013-02-17 12:11:00,36.0,29.0,29.53,West,277,16.0,-999.0,77,-99.99,,,-99.99,,2013-02-17 19:11:00,
2013-02-17 12:21:00,35.0,29.0,29.53,West,271,18.0,-999.0,78,-99.99,,,-99.99,,2013-02-17 19:21:00,
2013-02-17 12:32:00,35.0,29.0,29.53,West,273,15.0,-999.0,79,-99.99,,,-99.99,,2013-02-17 19:32:00,
2013-02-17 12:42:00,35.0,29.0,29.53,West,273,15.0,-999.0,79,-99.99,,,-99.99,,2013-02-17 19:42:00,
2013-02-17 12:51:00,34.0,28.0,29.54,West,275,15.0,-999.0,79,-99.99,,,-99.99,,2013-02-17 19:51:00,
2013-02-17 13:02:00,34.0,29.0,29.53,West,265,13.0,-999.0,81,-99.99,,,-99.99,,2013-02-17 20:02:00,
2013-02-17 13:11:00,34.0,29.0,29.53,West,265,13.0,-999.0,81,-99.99,,,-99.99,,2013-02-17 20:11:00,
2013-02-17 13:21:00,34.0,28.0,29.54,West,279,16.0,-999.0,80,-99.99,,,-99.99,,2013-02-17 20:21:00,
2013-02-17 13:32:00,33.0,28.0,29.53,West,274,17.0,-999.0,81,-99.99,,,-99.99,,2013-02-17 20:32:00,
2013-02-17 13:42:00,33.0,28.0,29.53,West,274,17.0,-999.0,81,-99.99,,,-99.99,,2013-02-17 20:42:00,
2013-02-17 13:52:00,33.0,28.0,29.53,West,277,18.0,-999.0,81,-99.99,,,-99.99,,2013-02-17 20:52:00,
2013-02-17 14:02:00,32.0,27.0,29.53,WNW,290,17.0,-999.0,81,-99.99,,,-99.99,,2013-02-17 21:02:00,
2013-02-17 14:11:00,32.0,27.0,29.53,WNW,290,17.0,-999.0,81,-99.99,,,-99.99,,2013-02-17 21:11:00,
2013-02-17 14:21:00,32.0,27.0,29.54,WNW,286,15.0,-999.0,81,-99.99,,,-99.99,,2013-02-17 21:21:00,
2013-02-17 14:32:00,32.0,27.0,29.54,WNW,292,13.0,-999.0,82,-99.99,,,-99.99,,2013-02-17 21:32:00,
2013-02-17 14:42:00,32.0,27.0,29.54,WNW,292,13.0,-999.0,82,-99.99,,,-99.99,,2013-02-17 21:42:00,
2013-02-17 14:52:00,32.0,27.0,29.54,WNW,297,16.0,-999.0,82,-99.99,,,-99.99,,2013-02-17 21:52:00,
2013-02-17 15:01:00,32.0,27.0,29.54,WNW,290,17.0,-999.0,82,-99.99,,,-99.99,,2013-02-17 22:01:00,
2013-02-17 15:12:00,32.0,27.0,29.54,WNW,290,17.0,-999.0,82,-99.99,,,-99.99,,2013-02-17 22:12:00,
2013-02-17 15:21:00,32.0,27.0,29.55,WNW,296,16.0,-999.0,82,-99.99,,,-99.99,,2013-02-17 22:21:00,
2013-02-17 15:32:00,32.0,28.0,29.56,NW,309,18.0,-999.0,85,-99.99,,,-99.99,,2013-02-17 22:32:00,
2013-02-17 15:42:00,32.0,28.0,29.56,NW,309,18.0,-999.0,85,-99.99,,,-99.99,,2013-02-17 22:42:00,
2013-02-17 15:52:00,32.0,29.0,29.58,WNW,299,15.0,-999.0,87,-99.99,,,-99.99,,2013-02-17 22:52:00,
2013-02-17 16:02:00,32.0,29.0,29.59,WNW,300,14.0,-999.0,88,-99.99,,,-99.99,,2013-02-17 23:02:00,
2013-02-17 16:11:00,32.0,29.0,29.59,WNW,300,14.0,-999.0,88,-99.99,,,-99.99,,2013-02-17 23:11:00,
2013-02-17 16:21:00,32.0,29.0,29.60,NW,305,13.0,-999.0,89,-99.99,,,-99.99,,2013-02-17 23:21:00,
2013-02-17 16:32:00,32.0,29.0,29.60,WNW,289,13.0,-999.0,89,-99.99,,,-99.99,,2013-02-17 23:32:00,
2013-02-17 16:42:00,32.0,29.0,29.60,WNW,289,13.0,-999.0,89,-99.99,,,-99.99,,2013-02-17 23:42:00,
2013-02-17 16:52:00,32.0,29.0,29.61,NW,311,14.0,-999.0,89,-99.99,,,-99.99,,2013-02-17 23:52:00,
2013-02-17 17:01:00,32.0,29.0,29.62,NW,315,16.0,-999.0,90,-99.99,,,-99.99,,2013-02-18 00:01:00,
2013-02-17 17:11:00,32.0,29.0,29.62,NW,315,16.0,-999.0,90,-99.99,,,-99.99,,2013-02-18 00:11:00,
2013-02-17 17:22:00,31.0,28.0,29.63,NW,319,16.0,-999.0,90,-99.99,,,-99.99,,2013-02-18 00:22:00,
2013-02-17 17:32:00,31.0,28.0,29.63,NW,317,16.0,-999.0,90,-99.99,,,-99.99,,2013-02-18 00:32:00,
2013-02-17 17:41:00,31.0,28.0,29.63,NW,317,16.0,-999.0,90,-99.99,,,-99.99,,2013-02-18 00:41:00,
2013-02-17 17:52:00,31.0,28.0,29.65,NW,309,18.0,-999.0,90,-99.99,,,-99.99,,2013-02-18 00:52:00,
2013-02-17 18:01:00,30.0,27.0,29.66,NW,309,19.0,-999.0,90,-99.99,,,-99.99,,2013-02-18 01:01:00,
2013-02-17 18:12:00,30.0,27.0,29.66,NW,309,19.0,-999.0,90,-99.99,,,-99.99,,2013-02-18 01:12:00,
2013-02-17 18:21:00,30.0,27.0,29.67,NW,311,19.0,-999.0,90,-99.99,,,-99.99,,2013-02-18 01:21:00,
2013-02-17 18:32:00,30.0,27.0,29.68,NW,313,16.0,-999.0,90,-99.99,,,-99.99,,2013-02-18 01:32:00,
2013-02-17 18:41:00,30.0,27.0,29.68,NW,313,16.0,-999.0,90,-99.99,,,-99.99,,2013-02-18 01:41:00,
2013-02-17 18:51:00,30.0,27.0,29.68,WNW,301,20.0,-999.0,90,-99.99,,,-99.99,,2013-02-18 01:51:00,
2013-02-17 19:01:00,30.0,28.0,29.70,NW,312,19.0,-999.0,91,-99.99,,,-99.99,,2013-02-18 02:01:00,
2013-02-17 19:11:00,30.0,28.0,29.70,NW,312,19.0,-999.0,91,-99.99,,,-99.99,,2013-02-18 02:11:00,
2013-02-17 19:21:00,30.0,27.0,29.70,NW,313,19.0,-999.0,90,-99.99,,,-99.99,,2013-02-18 02:21:00,
2013-02-17 19:32:00,30.0,28.0,29.71,NW,318,18.0,-999.0,91,-99.99,,,-99.99,,2013-02-18 02:32:00,
2013-02-17 19:42:00,30.0,28.0,29.71,NW,318,18.0,-999.0,91,-99.99,,,-99.99,,2013-02-18 02:42:00,
2013-02-17 19:52:00,29.0,26.0,29.73,NNW,333,22.0,-999.0,90,-99.99,,,-99.99,,2013-02-18 02:52:00,
2013-02-17 20:01:00,27.0,24.0,29.75,NNW,342,22.0,-999.0,89,-99.99,,,-99.99,,2013-02-18 03:01:00,
2013-02-17 20:11:00,27.0,24.0,29.75,NNW,342,22.0,-999.0,89,-99.99,,,-99.99,,2013-02-18 03:11:00,
2013-02-17 20:21:00,25.0,22.0,29.76,NNW,329,24.0,-999.0,89,-99.99,,,-99.99,,2013-02-18 03:21:00,
2013-02-17 20:32:00,24.0,21.0,29.78,NW,325,22.0,-999.0,89,-99.99,,,-99.99,,2013-02-18 03:32:00,
2013-02-17 20:42:00,24.0,21.0,29.78,NW,325,22.0,-999.0,89,-99.99,,,-99.99,,2013-02-18 03:42:00,
2013-02-17 20:51:00,24.0,21.0,29.78,NW,321,19.0,-999.0,89,-99.99,,,-99.99,,2013-02-18 03:51:00,
2013-02-17 21:01:00,23.0,20.0,29.80,NNW,338,22.0,-999.0,88,-99.99,,,-99.99,,2013-02-18 04:01:00,
2013-02-17 21:11:00,23.0,20.0,29.80,NNW,338,22.0,-999.0,88,-99.99,,,-99.99,,2013-02-18 04:11:00,
2013-02-17 21:21:00,21.0,17.0,29.81,NW,320,23.0,-999.0,86,-99.99,,,-99.99,,2013-02-18 04:21:00,
2013-02-17 21:32:00,19.0,16.0,29.83,NW,311,24.0,-999.0,86,-99.99,,,-99.99,,2013-02-18 04:32:00,
2013-02-17 21:41:00,19.0,16.0,29.83,NW,311,24.0,-999.0,86,-99.99,,,-99.99,,2013-02-18 04:41:00,
2013-02-17 21:51:00,19.0,16.0,29.84,NW,319,23.0,-999.0,86,-99.99,,,-99.99,,2013-02-18 04:51:00,
2013-02-17 22:02:00,18.0,15.0,29.85,NW,315,23.0,-999.0,86,-99.99,,,-99.99,,2013-02-18 05:02:00,
2013-02-17 22:11:00,18.0,15.0,29.85,NW,315,23.0,-999.0,86,-99.99,,,-99.99,,2013-02-18 05:11:00,
2013-02-17 22:21:00,18.0,14.0,29.86,NW,315,19.0,-999.0,85,-99.99,,,-99.99,,2013-02-18 05:21:00,
2013-02-17 22:31:00,18.0,14.0,29.88,NW,325,21.0,-999.0,85,-99.99,,,-99.99,,2013-02-18 05:31:00,
2013-02-17 22:41:00,18.0,14.0,29.88,NW,325,21.0,-999.0,85,-99.99,,,-99.99,,2013-02-18 05:41:00,
2013-02-17 22:52:00,18.0,14.0,29.89,NW,318,19.0,-999.0,85,-99.99,,,-99.99,,2013-02-18 05:52:00,
2013-02-17 23:02:00,18.0,14.0,29.89,NW,323,18.0,-999.0,85,-99.99,,,-99.99,,2013-02-18 06:02:00,
2013-02-17 23:11:00,18.0,14.0,29.89,NW,323,18.0,-999.0,85,-99.99,,,-99.99,,2013-02-18 06:11:00,
2013-02-17 23:21:00,18.0,14.0,29.89,NW,323,18.0,-999.0,85,-99.99,,,-99.99,,2013-02-18 06:21:00,
2013-02-17 23:32:00,17.0,14.0,29.90,NW,315,16.0,-999.0,86,-99.99,,,-99.99,,2013-02-18 06:32:00,
2013-02-17 23:41:00,17.0,14.0,29.90,NW,315,16.0,-999.0,86,-99.99,,,-99.99,,2013-02-18 06:41:00,
2013-02-17 23:52:00,17.0,14.0,29.91,NW,306,16.0,-999.0,86,-99.99,,,-99.99,,2013-02-18 06:52:00,